Villahermosa Airport, Mexico

5:27 PM CDT on September 24, 2017 (GMT -0500)
C P A Carlos Rovirosa International

Weather History for MMVA - November, 2012

Change the Weather History Date:

Monday, November 5, 2012

  Actual Average Record
Temperature  
Mean Temperature 79 °F -  
Max Temperature 87 °F 84 °F 91 °F (2002)
Min Temperature 71 °F 71 °F 68 °F (2008)
Cooling Degree Days 14    
Growing Degree Days 29 (Base 50)    
Moisture  
Dew Point 70 °F    
Average Humidity 75    
Maximum Humidity 100    
Minimum Humidity 46    
Precipitation  
Precipitation 0.00 in - - ()
Sea Level Pressure  
Sea Level Pressure 29.99 in    
Wind  
Wind Speed 3 mph ()    
Max Wind Speed 7 mph    
Max Gust Speed -    
Visibility 7.0 miles    
Events      
Averages and records for this station are not official NWS values.
T = Trace of Precipitation, MM = Missing Value Source: Averaged Metar Reports

Daily Weather History Graph

Daily Weather History Graph

Search for Another Location

Airport or City:

Trip Planner

Search our weather history database for the weather conditions in past years. The results will help you decide how hot, cold, wet, or windy it might be!

Date:

Astronomy

Nov. 05, 2012 Rise Set
Actual Time 6:12 AM CST 5:37 PM CST
Civil Twilight 5:49 AM CST 5:59 PM CST
Nautical Twilight 5:23 AM CST 6:25 PM CST
Astronomical Twilight 4:58 AM CST 6:51 PM CST
Moon 11:13 PM CST (11/5) 11:30 AM CST (11/5)
Length of Visible Light 12h 09m
Length of Day
11h 24m
Waning Gibbous, 62% of the Moon is Illuminated
Nov 5
Waning Gibbous
Nov 6
Last Quarter
Nov 13
New
Nov 20
First Quarter
Nov 28
Full

Hourly Weather History & Observations

Time (CST) Temp. Heat Index Dew Point Humidity Pressure Visibility Wind Dir Wind Speed Gust Speed Precip Events Conditions
5:43 AM 71.6 °F - 69.8 °F 94% 30.02 in 7.0 mi Calm Calm - N/A   Mostly Cloudy
6:42 AM 71.6 °F - 71.6 °F 100% 30.00 in 7.0 mi Calm Calm - N/A   Mostly Cloudy
7:41 AM 75.2 °F - 71.6 °F 89% 30.00 in 7.0 mi Calm Calm - N/A   Mostly Cloudy
8:42 AM 78.8 °F - 71.6 °F 78% 30.06 in 7.0 mi East 4.6 mph - N/A   Mostly Cloudy
9:41 AM 86.0 °F 91.8 °F 71.6 °F 62% 30.04 in 7.0 mi NNE 6.9 mph - N/A   Scattered Clouds
10:41 AM 82.4 °F 86.3 °F 69.8 °F 66% 30.03 in 7.0 mi NE 5.8 mph - N/A   Scattered Clouds
11:48 AM 86.0 °F 89.4 °F 68.0 °F 55% 30.06 in 7.0 mi NNE 5.8 mph - N/A   Mostly Cloudy
12:46 PM 86.0 °F 89.4 °F 68.0 °F 55% 29.98 in 7.0 mi NE 6.9 mph - N/A   Mostly Cloudy
1:40 PM 87.8 °F 91.4 °F 68.0 °F 52% 29.95 in 7.0 mi East 6.9 mph - N/A   Mostly Cloudy
2:41 PM 86.0 °F 89.4 °F 68.0 °F 55% 29.94 in 7.0 mi East 5.8 mph - N/A   Mostly Cloudy
3:40 PM 87.8 °F 89.4 °F 64.4 °F 46% 29.88 in 7.0 mi ENE 6.9 mph - N/A   Scattered Clouds
4:40 PM 82.4 °F 86.3 °F 69.8 °F 66% 29.90 in 7.0 mi North 6.9 mph - N/A   Scattered Clouds
5:40 PM 78.8 °F - 71.6 °F 78% 29.96 in 7.0 mi NNE 3.5 mph - N/A   Overcast
6:40 PM 78.8 °F - 71.6 °F 78% 29.93 in 7.0 mi NNE 6.9 mph - N/A   Overcast
7:40 PM 77.0 °F - 71.6 °F 83% 29.96 in 7.0 mi NNE 5.8 mph - N/A   Overcast
8:40 PM 77.0 °F - 77.0 °F 100% 30.02 in 7.0 mi NE 4.6 mph - N/A   Overcast
9:40 PM 75.2 °F - 71.6 °F 89% 29.99 in 7.0 mi Calm Calm - N/A   Partly Cloudy
10:40 PM 73.4 °F - 71.6 °F 94% 29.99 in 7.0 mi Calm Calm - N/A   Clear
11:40 PM 73.4 °F - 71.6 °F 94% 30.02 in 7.0 mi NE 3.5 mph - N/A   Clear